Jamestown, NY

8:53 AM EST on December 12, 2019 (GMT -0500)
Chautauqua County-Jamestown

Weather History for KJHW - October, 2019

Change the Weather History Date:

Thursday, October 10, 2019

  Actual Average Record
Temperature  
Mean Temperature 52 °F -  
Max Temperature 64 °F 60 °F 78 °F (2018)
Min Temperature 41 °F 38 °F 20 °F (1986)
Degree Days  
Heating Degree Days 12    
Growing Degree Days 2 (Base 50)    
Moisture  
Dew Point 42 °F    
Average Humidity 66    
Maximum Humidity 92    
Minimum Humidity 40    
Precipitation  
Precipitation 0.00 in - - ()
Sea Level Pressure  
Sea Level Pressure 30.29 in    
Wind  
Wind Speed 5 mph (ESE)    
Max Wind Speed 9 mph    
Max Gust Speed -    
Visibility 10 miles    
Events      
Averages and records for this station are not official NWS values.
T = Trace of Precipitation, MM = Missing Value Source: NWS Daily Summary

Daily Weather History Graph

Daily Weather History Graph

Search for Another Location

Airport or City:

Astronomy

Oct. 10, 2019 Rise Set
Actual Time 7:23 AM EDT 6:43 PM EDT
Civil Twilight 6:55 AM EDT 7:11 PM EDT
Nautical Twilight 6:23 AM EDT 7:44 PM EDT
Astronomical Twilight 5:50 AM EDT 8:16 PM EDT
Moon 5:48 PM EDT (10/10) 4:00 AM EDT (10/10)
Length of Visible Light 12h 16m
Length of Day
11h 20m
Waxing Gibbous, 91% of the Moon is Illuminated
Oct 10
Waxing Gibbous
Oct 13
Full
Oct 21
Last Quarter
Oct 27
New
Nov 4
First Quarter

Hourly Weather History & Observations

Time (EDT) Temp. Windchill Dew Point Humidity Pressure Visibility Wind Dir Wind Speed Gust Speed Precip Events Conditions
12:56 AM 48.0 °F - 39.9 °F 74% 30.30 in 10.0 mi East 4.6 mph - N/A   Clear
1:56 AM 48.0 °F - 39.9 °F 74% 30.30 in 10.0 mi ESE 5.8 mph - N/A   Clear
2:56 AM 46.9 °F - 39.9 °F 77% 30.30 in 10.0 mi ESE 4.6 mph - N/A   Clear
3:56 AM 46.9 °F - 39.9 °F 77% 30.30 in 10.0 mi SE 4.6 mph - N/A   Clear
4:56 AM 46.0 °F 42.5 °F 39.9 °F 79% 30.30 in 10.0 mi SE 6.9 mph - N/A   Clear
5:56 AM 45.0 °F 41.2 °F 39.9 °F 82% 30.32 in 10.0 mi SE 6.9 mph - N/A   Clear
6:56 AM 41.0 °F 39.0 °F 37.9 °F 89% 30.34 in 10.0 mi SSW 3.5 mph - N/A   Clear
7:56 AM 42.1 °F 40.2 °F 39.9 °F 92% 30.34 in 10.0 mi SSE 3.5 mph - N/A   Clear
8:56 AM 46.0 °F - 41.0 °F 83% 30.35 in 10.0 mi Calm Calm - N/A   Clear
9:56 AM 50.0 °F - 41.0 °F 71% 30.35 in 10.0 mi South 4.6 mph - N/A   Clear
10:07 AM 50.0 °F - 41.0 °F 71% 30.32 in 2.5 mi SSE 5.8 mph - N/A   Haze
10:19 AM 50.0 °F - 41.0 °F 71% 30.32 in 9.0 mi South 4.6 mph - N/A   Partly Cloudy
10:56 AM 54.0 °F - 43.0 °F 66% 30.34 in 10.0 mi SSE 4.6 mph - N/A   Clear
11:56 AM 57.9 °F - 42.1 °F 56% 30.31 in 10.0 mi East 9.2 mph - N/A   Clear
12:56 PM 60.1 °F - 42.1 °F 51% 30.30 in 10.0 mi ESE 6.9 mph - N/A   Clear
1:56 PM 63.0 °F - 42.1 °F 46% 30.28 in 10.0 mi East 5.8 mph - N/A   Clear
2:56 PM 64.0 °F - 39.0 °F 40% 30.27 in 10.0 mi Variable 3.5 mph - N/A   Clear
3:56 PM 64.9 °F - 41.0 °F 42% 30.25 in 10.0 mi Variable 3.5 mph - N/A   Clear
4:56 PM 64.9 °F - 43.0 °F 45% 30.25 in 10.0 mi ENE 3.5 mph - N/A   Clear
5:56 PM 63.0 °F - 43.0 °F 48% 30.25 in 10.0 mi Calm Calm - N/A   Clear
6:56 PM 61.0 °F - 43.0 °F 52% 30.25 in 10.0 mi NE 4.6 mph - N/A   Clear
7:56 PM 59.0 °F - 43.0 °F 55% 30.25 in 10.0 mi NE 6.9 mph - N/A   Clear
8:56 PM 57.0 °F - 44.1 °F 62% 30.24 in 10.0 mi East 6.9 mph - N/A   Clear
9:56 PM 57.0 °F - 44.1 °F 62% 30.25 in 10.0 mi East 4.6 mph - N/A   Clear
10:56 PM 55.0 °F - 45.0 °F 69% 30.25 in 10.0 mi East 3.5 mph - N/A   Clear
11:56 PM 53.1 °F - 45.0 °F 74% 30.25 in 10.0 mi SSE 3.5 mph - N/A   Clear